CZ-4 DEB, 26227

Orbit data source: Space-Track

CZ-4 DEB, 26227 is space debris in SSO originally from a launch on Thu, 14 Oct 1999 UTC launched from the Taiyaun Space Center, China (TSC). Debris objects in space refer to the collection of defunct objects orbiting the Earth. Examples of debris include non-operational satellites, rocket bodies, and fragments generated from explosions, collisions, or faulty payload assembly.

Loading next visibility...
Identifier
26227, 1999-057DR
Orbit
SSO
Country
Flag of CNCN / PRC
Related business
Manufacturer
Unknown
Mission
Spacecraft
Bus & Motor
Unknown
Mass
Unknown
Launch date (UTC)
1999-10-14 (26 years ago)
Launch vehicle
Unknown
Launch site
Taiyaun Space Center, China (TSC)
Object type
Payload
Rocket body
Debris
Shape & HBR
Unknown shape, 0.3 m
Radar Cross Section
Medium (>0.1 m² and <1 m²)

Expand to show TLE details & history
Last TLE update: 10 hours ago

TLE from 10 hours ago
0 CZ-4 DEB
1 26227U 99057DR  25298.08725992  .00002794  00000-0  63326-3 0  9992
2 26227  98.5029 349.9744 0071884  92.2358 298.4426 14.55334804349302
Epoch: 2025-10-25T02:05Z
TLE epoch observation values (Epoch: 2025-10-25T02:05:39.257Z)
Latitude
29.64018°
Longitude
-80.0156°
Altitude
688.03 km
Speed
7.528 km/s
True Right ascension
23h 00m 28s
True Declination
29° 29' 28"
Sunlit
Object was in full shadow at epoch
Visualization orbit readout
Latitude
Unknown
Longitude
Unknown
Altitude
Unknown
Speed
Unknown
Apparent Right ascension
Unknown
Apparent Declination
Unknown
Sunlit
N/A
Visualization observer readout
Local Sidereal Time
07:21:14
Azimuth
Unknown
Elevation
Unknown
Doppler factor
Unknown
Orbital elements
Apogee altitude
756.298 km
Perigee altitude
654.46 km
Semi-major axis
7,083.516 km
Eccentricity
0.00719
Inclination
98.5029°
RAAN
349.9744°
Arg. of periapsis
92.2358°
True anomaly
297.71521°
Mean anomaly
298.4426°
Eccentric anomaly
298.07921°
Mean motion
3.64057 °/min
Orbital period
98.89 mins
BSTAR
0.00063326
Loading maneuver chart data...
Computing Atmospheric mass density...

Documentation

Showing up to 5 results
|